Wind_Speed
49 52 55 58 61 65 69 73 75 79 82 87 94 101 105 108 107 104 99 94 92 89 87 86 86 85 85 85 82 79 76 75 74 70 66 64 62 61 57 53 54 55 54 56 56 54 54 54 51 49 48 47 48 50 50 50 49 50 49 49 48 48 48 48 47 47 47 46 46 46 46 45 44 44 44 45 45 45 44 43 42 42 42 42 41 40 40
45 48 52 55 58 62 65 68 70 73 77 81 88 95 100 104 105 103 100 97 95 92 90 88 88 87 87 85 82 79 77 76 74 68 64 62 59 56 54 53 53 53 53 54 55 56 57 58 57 54 50 48 48 50 51 50 50 50 50 49 48 48 49 48 47 47 47 46 46 46 45 45 44 43 43 44 45 44 44 43 42 42 42 41 40 39 40
41 45 49 52 55 59 61 63 66 70 73 76 80 85 92 98 101 101 101 100 97 93 91 90 90 89 87 84 82 81 79 77 75 70 66 64 62 58 55 53 51 49 50 50 49 48 50 54 56 56 55 53 53 53 52 51 51 51 51 51 50 49 50 49 48 48 48 47 46 45 45 45 43 42 43 44 45 44 44 43 42 43 42 41 40 40 41
40 42 45 48 51 55 57 59 63 66 68 70 73 78 84 90 95 98 100 99 96 93 91 90 91 89 85 82 83 83 81 78 77 74 67 63 62 61 58 54 50 47 47 49 50 49 48 49 51 52 54 55 54 52 51 51 51 52 52 51 51 50 51 51 50 49 48 47 46 46 45 44 43 43 43 44 45 45 44 43 43 44 43 42 42 41 41
39 40 42 44 47 50 51 53 56 59 61 63 67 71 75 80 86 91 95 96 95 93 92 91 90 88 85 84 83 82 80 77 76 73 67 61 58 56 53 48 44 45 48 51 53 50 47 48 49 49 50 51 51 51 51 51 51 52 52 52 51 51 51 52 51 50 49 48 47 46 46 45 43 43 44 45 45 45 45 44 44 44 44 43 42 42 42
36 36 37 39 42 43 45 47 50 53 55 58 62 65 68 74 81 86 89 91 93 95 94 92 90 91 91 90 87 83 79 75 72 69 66 63 59 55 52 48 46 47 50 53 53 50 48 49 49 48 49 50 50 51 51 51 51 52 51 51 51 51 51 52 51 50 49 48 47 47 47 46 44 44 45 46 46 46 46 45 45 45 45 44 44 44 43
32 32 33 36 37 38 40 44 46 49 52 56 60 63 66 72 78 82 83 85 88 91 92 91 91 92 90 88 86 83 79 74 71 66 63 61 59 55 52 52 52 52 52 53 54 53 53 54 52 51 52 52 51 51 51 51 51 51 50 50 50 50 51 51 50 49 49 49 48 48 47 46 44 45 46 47 47 47 46 46 46 46 46 45 45 44 44
30 31 32 33 35 35 35 38 42 46 50 55 59 62 65 68 71 75 78 80 80 82 83 84 85 85 83 82 83 80 76 74 72 69 65 63 61 59 55 53 54 55 56 57 57 56 57 57 56 56 56 53 50 50 51 51 51 50 49 48 49 49 50 50 49 49 49 49 49 49 48 46 45 46 46 47 47 47 47 46 46 46 46 45 45 45 45
27 29 29 29 32 34 33 34 39 44 49 54 56 58 61 63 66 69 72 73 73 74 75 74 74 76 78 80 81 76 72 72 72 69 68 67 65 63 60 57 55 56 57 57 57 58 58 59 59 59 58 54 51 51 52 52 51 50 49 49 49 49 49 48 48 48 48 49 49 49 47 46 46 47 47 47 48 47 46 46 45 45 46 46 46 46 46
23 24 25 27 29 30 30 32 36 41 47 51 53 56 58 60 62 63 64 64 65 68 69 69 70 74 77 78 75 69 68 71 71 68 67 67 65 63 62 61 59 58 58 59 61 62 62 61 60 58 56 55 53 52 53 53 52 51 51 50 49 49 49 48 48 47 47 48 48 48 47 47 47 47 47 48 48 48 47 47 46 46 46 46 46 46 46
22 23 24 26 27 26 26 31 36 39 43 48 52 55 57 58 59 58 58 61 63 65 67 69 72 75 76 74 69 64 66 68 67 64 64 64 64 63 61 61 61 60 61 63 64 64 63 61 59 57 55 54 53 53 53 53 53 52 52 51 51 50 49 49 48 47 47 48 47 47 47 47 47 48 48 48 48 48 48 48 48 47 47 46 46 47 47
21 23 24 26 27 27 27 31 36 38 41 48 52 54 56 57 57 56 56 59 63 65 67 69 70 72 72 68 63 63 66 66 62 61 62 61 61 60 60 60 60 61 63 64 65 64 61 60 59 57 55 54 53 53 53 54 54 54 53 52 51 50 50 49 49 48 47 47 47 46 46 47 47 48 48 49 49 49 49 49 48 47 47 46 46 47 47
21 24 25 26 28 29 29 31 35 37 42 47 49 51 54 55 54 54 56 58 60 63 65 66 67 68 67 62 59 61 64 62 60 61 61 60 59 58 58 58 59 62 63 63 62 61 60 60 60 58 57 55 54 53 54 55 55 54 53 52 52 51 51 50 49 48 48 47 47 46 46 47 47 48 49 49 49 49 49 49 48 48 46 45 46 47 49
22 25 25 26 30 33 33 32 32 35 40 44 45 48 51 54 54 55 57 58 59 60 60 63 65 65 61 59 59 61 60 59 59 60 59 57 57 58 58 57 57 60 61 61 60 60 60 61 61 60 58 57 55 53 54 55 55 54 54 53 53 52 51 50 50 49 48 47 47 46 47 47 47 48 49 49 50 50 49 48 49 48 46 45 46 48 49
22 24 26 29 33 37 36 31 29 32 36 39 42 45 48 51 54 55 56 57 57 56 57 60 61 58 56 58 60 59 58 58 58 58 57 56 56 57 58 59 58 58 59 59 59 59 59 59 60 59 58 56 55 54 55 55 55 54 54 54 53 53 52 51 51 50 49 48 47 47 47 47 48 49 49 50 50 49 49 48 48 47 45 46 48 50 50
23 26 28 32 36 40 38 32 31 32 32 34 40 44 45 46 48 51 53 53 54 55 56 56 55 53 54 57 57 56 57 58 56 55 55 55 56 57 59 60 61 61 60 59 59 58 58 58 58 58 56 56 56 56 56 55 55 55 55 55 54 53 52 52 51 50 49 49 48 48 48 48 49 49 50 50 50 49 48 49 48 47 46 46 48 51 52
27 28 31 34 38 42 40 34 32 31 29 31 37 40 42 44 44 46 48 49 51 52 53 52 50 50 52 53 52 53 55 54 53 53 53 54 55 57 58 60 62 63 63 61 60 59 58 57 57 56 56 56 57 56 56 55 55 56 56 55 55 54 53 53 52 51 50 49 48 48 49 49 50 50 50 51 50 49 49 49 48 47 46 46 47 50 52
28 29 31 34 39 41 40 35 32 32 31 32 36 38 39 41 41 41 44 46 47 48 49 49 48 49 50 50 49 49 48 47 48 49 47 47 51 55 58 61 63 63 63 63 61 59 59 58 57 57 57 57 57 56 56 56 56 56 55 55 55 55 54 53 53 52 51 50 49 49 49 50 50 51 51 51 50 49 49 50 49 47 47 47 48 50 52
30 31 31 33 37 40 39 35 33 33 31 32 35 37 37 37 38 40 42 44 45 46 47 48 48 49 49 49 47 46 44 43 43 41 36 37 47 56 60 62 65 64 63 63 61 59 58 58 57 57 57 57 57 56 56 56 56 55 55 55 55 55 54 54 53 53 52 51 50 50 50 51 51 51 52 51 50 50 50 50 49 48 48 48 49 52 54
31 32 31 31 35 38 37 35 33 32 31 32 34 36 37 38 40 41 41 42 43 44 47 48 47 46 46 46 46 45 43 41 38 35 31 33 46 58 62 62 64 64 63 62 60 58 58 58 57 57 57 57 57 57 57 57 56 55 55 55 55 55 55 54 53 53 52 51 51 51 51 52 52 52 52 51 50 50 51 50 49 49 49 49 51 54 56
30 31 29 27 30 34 36 36 34 32 31 31 33 36 39 42 42 41 40 41 40 41 44 46 45 43 43 44 44 43 42 40 36 33 31 36 48 62 68 66 64 62 61 60 59 58 59 59 59 59 59 58 58 57 57 57 55 55 56 56 55 56 56 55 54 53 52 51 51 51 52 53 53 53 52 50 50 51 51 51 51 50 50 51 53 55 56
29 28 27 27 30 33 35 35 34 33 32 31 33 36 39 42 43 43 43 42 42 42 43 44 44 44 43 45 45 43 42 41 37 33 35 44 55 66 73 72 68 63 61 61 61 61 60 59 58 58 59 60 59 59 57 56 55 56 57 57 56 56 56 55 54 53 52 51 51 52 52 53 53 53 52 51 51 52 52 52 52 51 51 53 55 56 57
27 22 23 29 34 36 37 36 35 36 36 35 36 40 42 42 41 43 45 45 46 47 46 46 47 47 45 46 47 47 46 45 42 40 45 55 63 69 74 75 71 66 63 63 63 62 62 61 58 54 52 52 54 55 55 55 55 57 58 58 58 58 57 56 55 53 52 52 53 53 53 53 53 52 52 51 51 52 52 52 52 52 53 55 56 57 58
25 23 25 33 36 37 39 39 38 39 40 39 39 44 46 44 40 40 43 47 49 50 49 48 49 50 49 48 48 49 49 50 50 52 57 64 68 71 73 72 68 64 63 63 62 62 62 64 62 58 55 54 54 55 55 54 55 56 57 57 57 57 58 57 56 54 53 53 54 54 53 53 52 52 52 51 51 52 52 53 53 53 55 57 57 57 58
23 26 32 37 38 38 40 41 40 42 43 41 40 43 47 48 43 39 41 45 48 50 51 51 50 51 52 52 52 52 53 54 56 58 63 68 70 71 71 69 65 63 62 63 62 61 61 61 61 61 61 61 61 61 60 58 57 57 56 56 56 57 58 59 57 55 54 55 55 55 54 53 53 53 52 52 52 53 53 54 54 55 56 58 58 58 57
23 26 33 39 40 39 40 41 41 44 46 45 43 44 47 50 50 47 44 44 46 49 52 53 54 54 54 55 55 56 55 56 58 60 63 66 68 69 69 68 66 64 63 63 62 62 62 61 60 60 61 63 64 65 64 62 59 58 58 58 58 58 59 59 57 55 55 55 55 55 55 55 55 54 53 53 53 54 55 55 56 56 57 59 59 58 57
23 26 30 37 39 39 40 40 40 43 46 47 46 46 47 51 55 54 51 48 48 49 51 53 54 54 54 54 56 58 58 58 58 59 61 63 64 65 66 66 66 65 64 63 62 61 61 61 60 61 63 65 66 67 65 63 61 60 60 60 59 59 58 57 56 55 55 55 55 56 55 55 55 55 54 54 54 55 56 56 56 57 58 59 59 58 58
23 25 29 35 39 41 42 42 41 42 44 46 47 47 48 50 54 56 56 54 52 51 51 53 55 55 53 53 53 56 59 61 61 61 62 63 63 65 66 66 66 66 65 64 64 64 64 64 64 64 65 66 67 68 66 64 62 61 61 60 60 59 57 54 54 55 55 54 54 55 55 55 55 55 54 55 55 56 56 56 57 58 58 59 59 59 59
26 28 31 36 39 41 43 43 43 44 44 44 45 45 45 46 50 54 56 56 54 50 48 50 53 54 54 54 52 52 55 60 62 63 64 64 64 66 67 67 68 68 68 69 70 70 70 69 68 67 66 67 68 68 66 63 62 61 61 60 59 56 52 51 52 56 57 54 53 53 54 54 55 55 55 55 56 56 56 57 57 58 58 59 60 60 60
31 32 34 37 39 41 42 43 44 45 45 44 43 42 41 41 44 48 53 55 55 51 48 48 49 50 50 51 51 50 51 54 58 61 64 66 66 66 66 67 67 67 67 68 69 69 69 68 67 67 67 67 68 68 65 62 59 57 55 54 51 49 48 50 54 58 58 55 53 52 53 53 54 55 55 55 56 56 57 57 58 58 59 59 60 61 62
38 37 39 41 42 41 42 44 47 48 48 46 45 44 42 40 40 43 47 51 52 50 47 47 48 48 48 48 48 48 48 50 52 56 60 64 66 65 65 65 65 65 65 65 66 67 67 67 66 67 67 67 67 67 65 62 58 53 48 45 44 44 47 52 56 58 58 55 53 51 51 52 53 54 54 55 55 56 57 58 59 60 60 60 61 62 64
45 44 44 45 45 43 43 45 48 51 52 51 49 47 46 45 43 44 46 49 49 48 46 45 45 44 44 44 45 46 47 49 51 52 55 60 64 65 65 65 65 65 65 65 66 67 67 67 67 68 68 67 67 66 63 60 57 54 51 49 47 48 52 55 56 57 57 57 55 52 51 52 53 54 54 55 56 56 57 58 59 60 61 61 61 63 65
47 48 49 50 49 48 47 46 47 50 52 53 52 51 51 50 48 48 48 50 50 49 48 48 47 45 44 43 44 46 47 49 51 51 52 55 59 62 64 65 66 65 65 66 67 68 68 68 68 68 68 68 66 63 60 56 53 52 53 52 52 54 57 58 56 56 57 59 58 55 53 53 54 55 56 56 57 57 58 59 60 61 62 62 62 63 66
46 49 53 55 54 53 52 51 50 51 52 53 54 55 55 54 52 52 52 53 54 54 53 51 50 50 50 49 48 48 49 50 50 49 49 50 52 55 59 62 64 65 65 66 67 67 66 66 66 66 66 64 60 56 53 51 51 51 52 53 54 56 58 58 56 56 58 59 59 57 55 55 55 56 56 57 58 59 59 60 61 62 63 63 63 63 65
47 49 53 56 57 57 57 55 54 55 55 54 55 56 56 56 57 57 57 57 58 59 58 56 54 54 54 55 55 53 53 54 53 51 48 47 48 49 51 53 56 58 61 62 63 63 62 61 60 60 58 55 51 47 46 48 49 50 51 53 54 55 56 58 58 57 58 58 57 57 56 56 57 57 58 59 60 60 61 62 62 63 64 64 64 63 63
50 52 54 56 58 59 58 57 57 57 56 55 55 56 56 58 59 60 60 61 61 61 61 60 59 58 57 57 58 55 51 52 55 54 50 47 46 46 46 47 48 50 53 55 56 55 54 54 53 52 49 47 45 44 45 46 48 49 51 54 55 55 56 58 58 57 57 57 57 57 58 58 59 60 60 61 62 62 62 63 64 65 65 65 63 61 61
50 54 57 58 58 59 59 59 59 58 57 56 56 56 57 58 59 60 61 63 64 64 64 63 63 61 59 58 57 53 48 46 49 49 48 46 46 46 45 44 45 46 48 49 49 49 49 49 49 48 46 46 46 46 46 47 48 49 51 54 55 54 55 56 57 57 57 57 58 59 60 60 61 62 62 63 63 63 64 64 64 64 63 62 60 59 60
46 52 57 59 60 60 61 61 62 61 60 58 58 57 58 59 59 60 61 62 63 65 65 65 64 63 61 59 57 53 49 46 46 46 46 46 47 46 45 44 44 45 46 47 47 47 48 48 48 47 47 47 48 49 49 50 49 50 53 55 56 55 55 56 57 58 59 59 60 61 62 63 63 63 64 64 64 64 64 64 63 62 60 60 59 59 60
43 46 52 57 61 62 62 63 64 65 64 62 61 60 59 60 60 59 59 60 61 63 64 64 63 62 61 60 57 54 51 49 48 47 47 47 47 46 46 45 45 46 46 47 48 49 49 49 49 49 48 49 50 51 52 51 51 52 55 57 58 58 57 58 59 60 61 62 62 63 63 64 64 64 64 64 64 63 62 62 60 59 59 59 59 59 60
45 44 46 50 56 61 63 64 64 64 64 64 63 62 62 62 61 60 60 60 61 62 62 62 61 60 60 59 57 55 53 51 49 49 49 49 48 48 47 46 46 47 48 49 50 51 51 51 51 51 50 51 52 53 53 53 53 54 56 58 60 60 59 60 61 61 62 63 63 64 65 65 65 64 63 63 63 61 60 59 59 59 59 59 59 60 60
49 48 46 46 49 54 58 61 63 64 64 63 63 63 63 63 63 63 63 62 61 61 61 61 60 59 59 57 56 55 55 53 51 50 51 51 51 50 48 47 48 50 50 50 51 52 51 51 52 52 52 53 55 55 55 55 56 56 58 59 60 60 60 60 61 62 63 64 64 65 65 64 62 61 61 61 61 59 58 58 59 59 59 59 59 60 60
52 50 48 48 48 48 50 53 56 59 62 63 63 64 64 64 64 63 64 64 63 62 62 62 60 59 58 58 57 56 55 54 53 53 53 53 52 51 49 48 51 53 51 50 51 52 52 52 53 53 54 55 57 57 56 57 57 58 59 60 61 61 60 61 62 62 63 63 63 64 63 60 58 58 59 59 59 59 58 59 60 60 60 60 59 59 59
51 50 50 51 50 49 48 48 49 51 55 58 61 62 63 64 64 63 62 63 63 62 62 62 61 60 59 59 58 57 56 55 54 53 53 53 52 51 49 50 53 54 52 50 51 53 53 53 54 54 55 56 57 57 57 58 58 59 59 60 61 60 60 60 60 60 60 60 61 61 59 57 57 58 59 59 59 59 60 60 60 60 60 60 59 59 59
48 49 51 53 53 52 51 51 50 50 51 52 53 55 56 58 60 62 62 62 62 61 61 61 60 60 59 59 59 58 57 55 54 53 53 52 52 51 50 51 53 53 51 50 51 52 53 54 55 55 55 55 56 56 57 57 58 58 59 59 59 58 58 57 57 58 58 58 58 58 58 57 58 59 60 60 60 60 60 61 60 60 60 60 59 59 60
48 49 51 54 55 55 55 54 54 53 53 51 51 50 50 51 53 55 57 59 60 60 60 60 60 60 60 59 59 58 58 57 55 54 53 53 53 53 52 51 52 53 52 50 50 51 53 54 54 53 53 54 54 54 55 55 55 56 57 56 56 56 56 56 56 56 57 58 58 58 58 58 59 60 61 61 61 60 61 60 60 60 60 60 60 60 61
50 50 50 52 54 56 58 58 57 56 55 54 53 52 52 51 51 51 51 53 55 57 57 58 58 59 59 59 59 59 59 58 57 56 55 55 55 55 54 53 53 54 53 53 52 52 53 53 53 52 53 53 54 54 54 54 55 56 56 56 56 56 57 56 57 57 58 59 59 60 60 60 60 60 61 60 60 60 60 60 60 60 60 60 61 61 62
50 50 51 53 56 57 57 58 57 57 56 56 56 56 55 54 53 51 51 51 52 53 54 54 55 56 57 58 58 59 59 59 58 58 57 56 56 56 56 56 55 55 55 55 55 54 54 54 54 54 54 55 55 55 55 55 56 57 57 57 58 58 59 58 59 59 60 60 61 61 62 62 61 61 60 60 60 60 60 60 60 61 61 61 62 63 64
51 51 53 55 57 56 54 53 55 56 57 58 58 58 58 57 55 54 53 53 54 54 53 53 53 53 54 54 55 56 57 57 58 57 57 57 58 58 58 57 57 57 57 57 57 57 56 56 56 56 56 57 57 57 57 58 58 59 59 60 60 61 61 60 60 61 62 62 62 62 62 62 62 61 60 60 60 61 61 61 61 62 62 63 64 65 66
51 52 54 56 57 55 53 52 53 55 56 57 58 59 59 59 58 57 56 57 57 56 55 55 55 54 53 53 53 54 55 56 56 57 57 57 58 58 59 58 59 59 59 59 59 59 59 59 59 59 59 59 59 59 59 59 60 61 61 61 61 62 62 62 62 62 62 62 62 62 62 62 61 61 61 61 61 62 62 63 63 64 65 65 66 66 67
51 53 55 57 57 56 55 54 53 54 54 55 56 57 58 59 60 60 60 60 59 59 58 58 57 56 55 55 55 55 56 56 56 56 56 57 57 58 58 58 59 59 59 59 59 60 60 60 60 60 60 60 60 60 60 60 61 62 62 62 62 62 62 62 63 63 62 62 61 62 62 62 62 62 62 62 63 64 65 66 67 67 68 68 67 67 67
51 53 56 57 57 57 56 55 54 54 55 55 55 55 56 58 60 61 61 61 61 61 60 59 58 58 59 59 59 59 58 58 58 57 57 57 57 58 58 58 58 59 59 59 59 60 60 60 60 61 61 61 61 61 61 61 62 62 62 62 62 62 63 63 63 63 63 62 62 63 63 64 64 64 65 65 66 66 68 68 69 69 69 69 69 68 67
52 54 55 55 56 56 56 55 55 55 55 56 56 56 56 57 57 58 59 60 61 61 60 60 61 62 62 62 62 62 62 61 60 59 59 59 60 60 60 60 60 60 60 60 61 61 61 61 61 62 62 62 62 62 63 63 63 63 64 64 64 64 64 64 65 65 64 64 65 65 66 66 67 67 68 68 69 69 69 69 70 70 70 70 70 69 69
Wind_Direction
205 206 208 211 212 212 213 214 215 216 216 216 215 215 216 218 219 221 222 224 224 225 225 227 228 230 231 231 232 234 236 239 241 242 244 245 246 248 247 244 245 247 247 248 251 255 260 261 260 259 261 263 263 263 265 267 268 269 269 270 270 271 273 273 274 274 275 275 276 277 278 279 280 282 283 285 285 285 285 285 285 285 286 289 291 292 291
204 205 207 209 211 212 213 214 214 215 216 216 216 216 216 218 219 219 220 222 223 224 225 227 228 230 232 233 233 234 236 239 241 241 241 242 245 248 249 248 248 250 249 250 253 257 259 258 256 257 261 263 263 265 268 269 269 269 270 270 271 272 272 273 273 274 274 274 275 276 277 278 279 281 283 284 283 283 283 284 284 284 286 289 290 289 290
203 206 207 208 210 211 212 212 213 214 215 215 216 217 216 217 218 219 220 220 221 222 224 226 228 230 232 234 235 235 235 237 240 240 240 242 244 245 247 249 252 253 253 253 255 256 257 256 256 258 260 262 264 267 269 269 269 270 270 270 271 271 272 272 272 272 273 274 275 276 277 277 279 281 282 281 281 281 282 283 283 284 287 289 289 290 291
202 205 207 209 210 211 212 212 212 214 214 214 215 216 217 216 217 219 220 221 221 222 223 226 227 229 230 232 234 235 235 236 239 241 242 243 245 246 248 252 253 251 251 251 253 256 259 259 260 260 261 263 265 267 268 268 269 269 269 270 270 270 271 271 271 271 272 274 275 275 276 276 278 279 280 279 280 280 281 282 284 286 288 290 290 291 291
201 203 204 208 211 212 213 213 214 215 215 214 214 215 216 216 216 218 220 221 221 222 223 225 227 228 229 231 232 234 235 236 238 241 242 242 244 245 247 247 246 245 245 248 252 256 259 260 260 260 261 264 266 267 267 268 268 268 268 269 269 269 270 270 271 271 272 273 274 274 274 275 276 277 278 278 278 279 281 283 285 287 289 290 291 291 290
200 203 204 208 211 213 213 214 214 215 215 213 213 214 213 213 214 215 218 220 221 222 223 224 226 227 228 230 231 233 234 235 237 240 241 241 242 244 243 241 240 242 244 248 251 254 255 258 259 260 263 265 267 267 267 267 267 267 268 269 269 269 270 270 271 271 272 272 273 273 273 274 275 276 276 277 278 279 281 283 285 288 289 290 291 291 291
198 201 204 207 209 211 213 213 212 213 212 211 210 210 210 211 212 213 215 217 220 222 224 225 227 229 230 232 233 233 234 235 236 237 238 239 240 240 240 239 239 240 245 250 253 254 254 256 258 261 265 266 267 267 268 267 267 268 269 269 270 270 269 270 271 271 271 272 272 272 272 273 273 274 274 276 278 279 281 284 286 288 289 290 292 292 292
199 203 204 206 207 208 209 211 211 209 209 209 208 208 208 209 211 212 214 215 217 221 223 226 228 230 232 234 235 234 235 236 237 236 237 238 238 237 236 239 240 243 248 253 255 254 254 254 258 263 266 266 266 267 267 267 268 269 270 270 270 270 269 270 270 270 271 271 271 272 272 273 272 271 273 275 277 279 282 285 286 287 289 290 292 293 293
204 209 207 205 207 205 203 206 208 207 206 207 207 206 205 206 208 211 213 214 216 219 221 224 227 229 231 232 233 232 233 235 236 236 236 237 238 237 237 239 242 245 249 252 253 253 253 256 260 263 265 266 266 266 266 266 268 269 270 270 270 270 270 270 270 270 270 270 270 272 273 273 272 271 272 274 276 279 282 284 284 285 288 290 292 293 294
207 212 209 205 205 203 200 200 203 205 205 205 204 203 202 204 206 208 210 212 214 218 220 221 224 226 228 230 231 230 232 234 234 235 235 236 238 239 239 240 242 244 246 247 250 252 255 259 262 263 265 265 264 264 265 266 268 268 269 270 270 271 271 270 270 270 269 270 270 271 272 272 271 272 273 274 276 279 281 282 284 286 289 291 292 293 294
204 207 206 203 198 195 196 197 198 201 203 203 202 200 199 201 204 206 207 209 212 215 218 220 224 226 228 230 230 229 232 234 234 235 236 238 239 241 242 243 244 245 245 246 249 253 256 259 261 262 264 264 263 264 265 266 267 268 269 270 271 271 271 271 270 270 270 270 270 270 271 270 270 271 272 274 277 279 280 282 285 287 289 291 293 294 295
203 201 202 200 192 188 192 194 194 196 200 202 201 199 198 200 203 204 207 211 213 216 218 221 225 228 229 230 230 230 232 233 234 235 235 236 238 240 243 244 245 246 246 247 249 252 255 257 258 260 262 264 264 264 265 266 267 268 269 270 271 272 272 271 271 271 270 270 270 270 269 269 269 270 271 273 276 278 280 283 285 286 289 292 293 295 295
199 197 196 193 187 183 184 187 191 196 200 201 201 200 199 201 202 205 208 213 216 219 221 223 226 229 230 229 230 231 233 233 233 235 235 236 237 239 242 244 245 246 246 247 249 251 252 254 256 259 261 263 264 264 264 265 267 268 269 271 271 271 271 271 271 271 271 271 271 270 269 268 268 269 270 272 275 277 280 283 284 286 290 292 293 295 295
196 194 191 185 181 179 177 179 190 201 203 201 200 201 201 202 204 206 209 213 216 220 223 226 229 230 230 230 231 232 234 234 234 236 237 237 237 239 240 242 244 245 245 246 249 250 251 252 255 258 261 263 264 264 264 266 267 269 270 270 271 271 272 271 271 271 271 271 271 270 269 268 268 268 270 272 274 277 279 282 284 287 290 291 292 293 293
194 191 186 180 178 178 173 174 190 203 203 200 200 201 203 205 208 210 213 215 218 221 224 227 230 231 231 231 232 233 234 235 235 237 238 238 238 238 238 239 243 246 247 247 249 251 251 253 255 258 260 262 263 263 264 266 268 269 270 271 271 271 271 271 271 271 271 271 271 270 269 268 267 268 269 271 273 276 279 281 283 286 288 290 291 293 294
188 187 184 181 180 177 172 176 193 199 198 200 202 201 202 205 210 214 217 219 221 223 226 229 231 231 231 231 232 233 235 235 236 238 240 241 241 241 241 241 245 249 251 251 251 252 253 254 255 256 258 260 261 262 264 266 268 269 270 270 271 271 270 270 271 271 271 271 271 270 269 268 267 267 268 270 272 275 278 280 282 284 287 289 292 294 296
184 184 184 184 183 178 174 181 193 190 188 199 205 205 204 206 210 214 217 219 221 224 226 228 229 231 232 233 233 234 236 238 239 240 242 244 245 246 246 247 248 250 252 253 253 253 254 255 256 257 259 260 261 263 264 266 267 268 269 270 271 271 271 271 271 272 272 272 271 270 269 268 267 267 268 270 272 275 277 278 280 282 285 288 290 292 293
183 184 186 188 187 181 177 182 188 186 187 197 203 206 208 209 212 216 219 221 223 225 227 228 227 229 231 232 232 233 236 238 240 241 244 250 253 253 252 251 251 250 251 253 253 254 255 257 258 259 259 260 261 262 264 265 267 268 269 270 271 271 272 272 272 272 272 272 271 270 268 267 266 266 267 269 271 274 275 276 278 281 283 286 288 289 290
185 184 188 192 189 185 182 181 182 186 191 196 200 204 208 210 214 218 221 222 223 225 228 228 228 229 231 231 232 232 232 235 239 241 244 251 259 259 256 252 251 250 250 251 253 254 255 256 258 258 259 260 261 262 264 265 266 268 269 270 271 272 272 272 272 272 272 272 271 269 267 266 265 266 267 268 271 272 274 275 278 279 281 284 287 288 289
190 186 188 194 192 189 187 183 181 187 193 196 199 203 206 210 214 218 221 224 225 227 229 230 231 231 231 233 233 232 231 232 235 238 237 241 251 256 255 253 251 250 250 251 252 253 254 255 257 258 260 261 261 262 263 265 266 268 269 270 271 271 272 273 273 273 273 272 270 268 266 265 265 265 266 268 270 272 273 275 276 278 281 284 287 288 290
195 190 189 191 190 190 190 186 185 189 193 197 201 205 207 211 214 216 220 223 226 229 231 232 232 232 230 230 231 229 228 226 223 223 228 236 245 250 252 251 250 250 250 250 251 252 254 255 257 258 260 261 262 262 263 264 266 267 269 270 271 271 272 273 274 274 273 272 269 267 265 264 265 266 267 268 270 272 273 274 276 278 282 285 286 288 290
196 195 194 190 185 186 187 188 191 195 196 197 203 209 213 214 213 213 217 221 225 229 231 231 231 229 228 228 227 225 224 222 215 210 218 230 238 245 248 248 249 250 250 250 250 251 252 253 255 258 259 260 260 260 261 263 265 267 269 270 271 272 273 274 274 274 273 271 268 265 264 264 264 265 266 268 270 272 273 275 277 280 283 284 286 288 290
190 193 201 198 190 183 183 187 195 200 199 197 201 209 216 219 217 215 216 219 222 226 228 230 229 228 227 227 227 225 222 217 209 205 213 223 231 239 244 246 248 249 250 250 251 252 253 253 253 254 257 260 261 259 260 262 265 267 269 270 271 272 273 273 274 274 272 269 266 265 264 264 264 265 266 268 269 272 273 276 278 281 283 284 286 289 290
186 191 202 202 195 187 185 189 195 199 201 201 203 208 213 217 220 219 219 220 223 225 227 228 229 229 228 228 228 227 224 219 212 209 213 220 227 235 241 244 246 247 248 250 251 252 253 254 254 254 257 262 265 265 264 265 268 270 271 272 272 273 274 275 274 274 271 268 265 265 265 265 265 265 266 268 270 272 275 277 279 281 282 284 287 289 291
192 197 199 199 196 192 192 195 198 199 201 204 207 211 212 214 217 218 219 222 225 227 228 229 229 229 230 229 230 231 229 226 223 221 221 225 230 235 240 243 245 246 247 249 250 250 251 253 255 257 260 263 265 267 268 269 271 273 273 274 274 274 275 275 275 273 270 267 265 265 266 266 266 266 267 269 271 274 276 277 279 281 283 285 287 289 291
204 205 201 198 197 195 196 200 203 203 203 205 209 212 213 214 215 217 218 220 223 225 227 229 229 231 231 231 232 233 233 232 231 230 231 232 234 237 240 242 244 245 246 247 249 250 251 252 254 256 260 262 264 266 268 270 271 272 273 273 274 274 274 274 273 271 269 266 265 266 266 266 267 268 269 270 272 274 276 277 279 281 283 285 288 289 290
207 209 206 202 199 197 198 202 205 207 208 210 213 216 216 216 217 219 221 222 222 224 226 227 229 231 232 233 234 235 236 236 235 234 235 236 236 237 240 242 243 244 245 246 248 249 250 252 252 254 258 261 263 265 267 268 269 271 272 273 273 274 274 274 272 269 266 265 264 265 265 266 267 269 270 272 273 274 276 278 280 282 284 285 287 288 289
207 213 210 205 203 201 202 205 209 211 212 214 217 220 221 222 221 222 223 225 226 228 230 231 232 233 234 234 236 237 238 238 238 238 238 239 239 240 242 242 243 244 245 246 248 249 251 253 255 256 258 259 261 262 263 265 268 270 272 273 274 275 274 271 269 267 265 264 264 264 265 266 268 270 272 273 274 275 277 279 280 282 284 285 286 287 288
204 215 210 205 204 204 206 209 212 213 213 215 218 221 223 225 224 224 224 225 226 229 233 233 233 234 234 235 238 240 240 239 240 241 241 241 242 243 244 244 245 246 247 249 250 252 254 256 256 257 257 257 259 261 262 264 267 270 272 273 273 272 271 268 266 266 265 264 264 265 266 268 270 271 273 274 275 277 278 279 281 282 283 285 286 287 288
201 214 214 210 208 209 211 213 214 214 215 217 219 222 223 223 224 224 225 224 226 230 234 235 234 234 234 235 238 241 242 242 242 243 242 242 242 243 244 245 246 247 248 249 251 252 253 254 254 255 255 256 257 260 261 263 265 269 271 271 270 269 268 266 265 265 265 264 264 265 267 269 270 272 273 274 275 277 278 280 281 282 283 284 285 287 288
198 210 216 216 213 212 214 217 218 218 218 219 221 224 224 223 222 223 224 224 226 229 231 232 232 232 232 235 239 242 244 244 245 245 244 243 242 242 243 244 245 246 246 247 248 249 250 251 252 253 254 255 256 258 260 261 262 261 260 260 261 262 263 263 263 264 265 266 266 266 267 269 270 271 272 273 275 276 278 279 280 281 282 283 285 287 289
199 204 213 217 216 214 216 218 218 219 220 220 221 225 227 226 226 226 226 225 224 226 228 229 230 231 233 236 239 243 245 245 245 245 246 245 243 242 242 242 243 245 245 246 247 248 249 250 251 253 254 255 256 258 259 260 258 253 247 245 248 252 255 256 258 262 265 267 268 268 269 270 271 272 273 274 275 276 277 278 279 281 282 284 286 288 290
206 204 209 215 217 217 217 216 216 218 220 221 222 224 227 228 229 231 231 229 228 228 230 231 233 235 237 240 242 242 243 243 242 242 244 245 245 244 244 243 243 244 245 246 247 248 248 250 251 253 254 255 257 258 258 257 254 249 244 242 244 248 252 255 257 260 263 266 268 269 270 271 272 273 274 275 276 276 277 278 279 281 283 285 287 289 289
214 209 209 213 216 218 218 217 216 217 220 222 224 225 226 226 228 230 232 232 232 233 234 235 236 238 240 244 246 244 242 242 241 241 241 243 245 246 246 244 244 245 246 247 248 249 250 251 253 254 255 255 255 255 254 252 249 245 243 243 246 250 254 257 259 260 262 264 267 269 271 272 273 274 274 275 275 276 277 278 280 281 283 286 287 288 288
218 213 212 213 216 219 220 219 218 218 219 221 225 226 226 226 226 228 229 230 232 235 236 236 238 239 242 245 247 245 242 241 242 243 243 244 245 246 247 246 246 246 247 248 249 250 252 253 253 253 252 252 250 248 247 247 247 246 245 246 249 252 255 259 260 261 262 265 267 270 271 271 272 273 273 274 275 276 278 279 281 283 284 286 287 287 287
219 216 214 215 218 221 222 221 222 221 220 220 223 226 227 227 227 228 229 230 231 234 235 236 238 240 242 243 245 246 245 243 242 243 243 242 241 241 243 243 243 244 245 246 248 250 251 250 249 248 248 247 246 244 243 245 248 249 249 250 251 253 255 258 261 262 264 266 268 269 270 270 271 272 273 274 275 277 279 281 283 284 285 286 287 288 288
219 219 218 217 218 221 223 224 225 225 224 222 223 225 227 228 229 229 230 231 232 233 235 236 238 241 242 242 244 247 249 245 241 239 238 237 236 236 237 238 238 239 240 241 243 245 246 247 246 246 246 246 246 245 244 244 246 248 251 253 254 254 256 259 261 263 264 266 267 268 269 270 271 272 273 274 276 278 280 282 283 284 285 286 287 288 288
221 220 221 220 220 221 222 224 226 227 227 226 225 226 227 228 229 230 231 232 232 234 235 237 239 241 243 243 244 249 251 248 242 239 237 236 235 235 236 236 236 237 237 238 240 241 243 245 246 247 247 247 248 248 247 246 246 247 249 252 253 254 255 257 258 260 262 264 265 267 268 269 271 272 274 276 278 279 280 281 282 283 284 285 286 288 289
223 222 222 222 222 222 223 225 226 228 229 229 229 228 228 229 230 231 232 233 234 235 237 238 240 242 243 244 245 248 249 247 244 242 241 240 239 238 237 238 238 238 239 240 240 241 242 244 246 247 247 248 248 249 249 248 248 248 250 251 252 253 254 255 257 259 261 263 264 266 268 269 271 273 275 277 278 278 279 280 281 283 284 285 286 288 289
227 226 224 224 224 224 225 226 228 229 230 231 232 231 231 231 232 233 233 234 235 236 237 239 240 242 243 244 244 244 244 244 244 244 244 244 243 242 241 241 241 241 241 241 242 242 242 244 245 246 247 248 249 249 250 250 250 250 251 253 254 254 255 256 258 260 261 263 265 267 268 270 272 274 276 277 277 278 279 280 282 283 284 285 287 288 289
230 229 227 226 226 226 227 228 230 231 232 233 234 234 234 234 235 235 236 236 236 237 238 240 241 242 243 243 243 242 242 243 244 244 244 245 245 244 244 244 245 244 243 243 245 245 245 245 246 246 247 248 249 250 251 251 252 252 253 254 255 256 258 259 260 261 263 264 266 267 269 271 273 274 275 275 277 278 279 281 282 282 284 285 286 287 288
231 231 230 230 230 229 229 229 230 232 233 234 235 236 236 237 237 238 238 238 238 239 240 241 242 243 244 244 243 243 243 243 244 244 244 245 245 246 245 246 246 246 245 245 247 248 248 248 248 248 248 249 250 251 252 253 254 255 256 257 257 258 260 261 262 264 265 266 267 268 269 271 272 273 274 275 277 279 280 281 282 283 284 284 285 286 287
233 232 232 233 233 233 233 232 231 231 233 235 236 237 238 238 239 240 241 242 242 242 242 243 244 244 245 245 246 246 245 245 246 246 247 247 247 247 247 247 248 248 247 246 248 250 250 251 251 251 251 252 252 253 254 255 256 256 257 258 259 260 261 262 263 264 265 266 267 268 270 271 272 273 274 276 277 279 280 281 282 283 284 284 285 287 288
234 232 232 232 233 234 234 234 234 233 233 234 236 238 238 239 239 240 241 242 243 243 243 244 244 244 245 245 246 247 248 247 247 247 248 248 248 248 247 248 250 250 249 248 248 250 251 251 251 252 253 254 254 255 255 256 257 257 258 259 260 261 262 262 263 264 265 266 268 270 271 272 273 274 276 277 278 279 280 281 281 282 283 284 285 287 288
235 234 233 233 233 234 235 235 235 236 236 236 236 237 237 237 237 238 239 241 242 242 242 242 243 243 243 244 245 246 247 247 247 247 247 248 249 249 248 248 250 251 251 250 249 249 250 251 252 252 253 254 254 255 256 257 258 258 259 260 261 262 263 263 265 266 267 268 270 271 272 273 274 275 277 278 279 279 280 280 281 282 283 284 286 287 288
236 236 236 236 235 234 234 235 235 236 237 238 238 238 238 238 237 237 238 239 241 242 242 242 242 243 243 244 244 245 246 247 247 247 247 247 248 249 249 249 250 252 252 252 251 250 251 252 252 252 253 254 255 255 256 257 258 260 261 262 262 263 264 265 266 267 268 270 271 272 273 273 274 275 276 277 278 279 279 280 281 282 283 285 287 288 289
237 236 237 238 238 237 236 237 238 238 238 238 239 240 240 240 240 239 239 240 241 242 243 243 244 244 244 245 246 247 247 248 249 249 249 249 249 250 250 250 251 252 253 254 254 253 253 253 253 253 254 255 256 256 257 258 259 261 262 263 264 265 266 267 268 269 270 271 271 272 273 274 274 275 275 276 276 277 278 279 281 282 284 285 287 288 290
238 237 237 239 241 241 239 240 241 241 240 240 241 241 242 242 242 242 242 242 243 243 244 244 245 245 245 246 246 247 248 249 250 250 251 251 251 251 252 252 253 253 254 254 255 256 256 256 256 256 256 257 257 258 258 259 260 262 263 264 265 266 266 267 268 269 270 270 271 272 273 273 274 274 274 275 276 277 278 279 281 282 284 285 286 288 289
238 238 239 241 243 243 241 240 240 241 241 242 243 244 244 245 245 245 244 244 244 245 245 245 245 246 246 247 247 247 248 248 249 250 250 251 252 252 253 253 254 254 255 255 256 257 257 258 258 259 259 259 260 260 261 261 262 263 263 264 265 266 267 268 268 269 269 270 271 271 272 272 273 274 275 276 277 278 279 280 281 282 284 285 286 287 288
238 238 240 241 243 243 242 241 240 241 242 242 243 244 245 246 247 247 247 246 246 246 246 246 247 247 248 248 248 248 249 249 249 249 250 251 252 252 253 253 254 255 255 256 256 257 258 258 259 259 260 260 261 261 262 262 263 264 264 265 266 266 267 268 268 269 269 270 270 271 271 272 273 274 275 276 277 278 279 281 282 283 284 285 285 286 286
239 239 240 242 243 244 244 243 242 242 242 243 244 244 245 245 246 247 248 248 248 248 248 248 248 249 249 249 249 249 250 250 250 251 251 252 252 253 254 254 255 255 256 256 257 257 258 258 259 259 260 260 261 262 262 263 263 264 265 265 266 266 267 268 268 269 269 270 270 271 272 273 274 275 275 276 277 278 280 281 282 283 283 284 284 285 285
241 241 242 243 244 244 245 245 244 243 243 244 244 244 245 246 246 247 248 249 250 250 250 250 250 250 250 250 250 251 251 252 252 252 253 253 254 254 255 255 255 256 256 257 257 258 258 259 260 260 261 261 262 262 263 264 264 265 266 266 267 267 268 268 269 270 270 271 271 272 273 274 275 276 276 277 278 279 280 280 281 282 282 283 283 284 284
Height
10364 10371 10377 10383 10390 10396 10401 10408 10417 10425 10433 10441 10447 10453 10462 10470 10480 10492 10506 10517 10526 10534 10541 10546 10549 10553 10557 10560 10567 10575 10579 10580 10585 10592 10599 10604 10607 10610 10617 10624 10624 10625 10627 10627 10629 10633 10635 10637 10637 10638 10640 10641 10642 10642 10644 10646 10648 10648 10649 10650 10650 10650 10650 10650 10651 10651 10650 10651 10650 10650 10649 10649 10649 10649 10647 10646 10645 10645 10644 10643 10643 10641 10639 10639 10638 10636 10633
10367 10372 10377 10382 10389 10394 10399 10407 10415 10422 10429 10437 10442 10449 10460 10469 10478 10491 10501 10508 10516 10525 10533 10539 10543 10546 10550 10556 10564 10572 10575 10575 10579 10588 10594 10599 10604 10608 10612 10617 10619 10621 10623 10624 10626 10629 10631 10632 10632 10634 10636 10636 10636 10637 10639 10642 10643 10643 10644 10645 10646 10646 10645 10645 10646 10646 10645 10646 10646 10645 10645 10645 10645 10644 10643 10641 10640 10640 10639 10639 10638 10636 10635 10635 10633 10631 10629
10369 10373 10378 10382 10387 10393 10399 10406 10412 10417 10424 10432 10440 10450 10458 10466 10476 10488 10494 10498 10506 10517 10526 10532 10536 10541 10547 10555 10560 10565 10570 10571 10573 10581 10590 10596 10601 10605 10608 10610 10614 10617 10619 10620 10622 10624 10625 10626 10628 10630 10632 10631 10631 10633 10635 10637 10638 10638 10639 10640 10641 10641 10640 10640 10641 10641 10641 10641 10641 10641 10641 10640 10640 10640 10639 10637 10636 10635 10635 10634 10633 10631 10631 10630 10629 10627 10625
10369 10374 10379 10383 10388 10392 10398 10404 10410 10415 10422 10432 10440 10447 10454 10463 10474 10483 10487 10494 10505 10515 10521 10525 10530 10537 10544 10549 10551 10555 10563 10567 10568 10575 10587 10593 10596 10601 10605 10606 10609 10612 10614 10615 10616 10617 10619 10621 10624 10625 10626 10626 10627 10629 10631 10632 10633 10633 10633 10634 10635 10636 10635 10635 10635 10636 10636 10637 10637 10637 10636 10636 10636 10635 10634 10633 10631 10631 10630 10629 10628 10627 10626 10626 10624 10623 10622
10368 10374 10380 10384 10389 10394 10400 10407 10412 10418 10426 10433 10438 10444 10454 10465 10473 10479 10485 10494 10503 10509 10514 10519 10525 10533 10538 10540 10543 10549 10558 10564 10566 10573 10583 10589 10593 10598 10601 10602 10604 10607 10608 10609 10609 10611 10614 10616 10618 10619 10620 10621 10622 10624 10626 10627 10628 10628 10628 10628 10630 10630 10630 10629 10630 10631 10632 10632 10633 10632 10631 10631 10631 10630 10629 10628 10627 10627 10626 10625 10623 10622 10621 10621 10620 10618 10617
10371 10377 10383 10387 10391 10397 10402 10407 10413 10419 10425 10431 10436 10443 10453 10460 10465 10473 10481 10489 10495 10500 10505 10513 10518 10521 10526 10531 10537 10545 10554 10561 10566 10571 10578 10584 10589 10594 10597 10599 10601 10601 10602 10603 10604 10607 10608 10610 10612 10613 10614 10616 10617 10619 10620 10621 10622 10622 10623 10623 10624 10625 10624 10624 10625 10627 10627 10627 10627 10627 10626 10626 10626 10625 10624 10622 10622 10621 10621 10620 10618 10617 10616 10616 10615 10613 10611
10374 10379 10383 10387 10391 10395 10400 10405 10410 10416 10422 10428 10433 10439 10447 10452 10458 10467 10475 10482 10489 10495 10503 10509 10511 10514 10523 10530 10535 10542 10551 10558 10563 10568 10572 10577 10583 10589 10593 10595 10596 10597 10597 10598 10600 10602 10603 10604 10607 10608 10609 10611 10613 10614 10615 10615 10615 10616 10618 10618 10619 10619 10619 10619 10620 10621 10621 10621 10621 10620 10621 10621 10621 10620 10619 10617 10617 10616 10615 10615 10613 10612 10611 10610 10609 10608 10606
10376 10378 10382 10387 10390 10394 10399 10404 10409 10414 10419 10424 10429 10435 10442 10449 10457 10466 10472 10479 10487 10493 10500 10507 10510 10518 10526 10527 10528 10538 10549 10554 10558 10563 10568 10572 10576 10582 10586 10588 10591 10592 10592 10592 10593 10596 10597 10599 10601 10603 10603 10606 10608 10609 10609 10609 10610 10611 10613 10613 10613 10613 10612 10613 10615 10615 10615 10615 10615 10614 10615 10616 10615 10614 10613 10612 10611 10610 10610 10610 10608 10607 10606 10605 10604 10602 10601
10378 10380 10384 10388 10391 10394 10399 10403 10408 10412 10417 10421 10428 10435 10443 10449 10457 10464 10470 10478 10485 10491 10498 10505 10510 10515 10516 10513 10519 10536 10546 10548 10551 10558 10562 10566 10570 10575 10581 10584 10586 10586 10585 10584 10587 10589 10591 10594 10596 10598 10599 10601 10603 10603 10603 10603 10605 10606 10607 10607 10607 10607 10607 10608 10609 10609 10609 10609 10609 10608 10609 10610 10609 10608 10608 10607 10606 10606 10605 10603 10602 10602 10601 10599 10598 10596 10595
10379 10382 10385 10388 10392 10396 10400 10403 10408 10412 10417 10422 10429 10436 10442 10449 10455 10462 10470 10478 10484 10490 10496 10500 10502 10503 10502 10505 10521 10538 10541 10539 10545 10552 10557 10561 10566 10571 10576 10579 10580 10579 10578 10579 10581 10583 10586 10589 10591 10593 10595 10596 10597 10597 10597 10598 10599 10600 10601 10601 10601 10601 10601 10602 10602 10603 10603 10603 10603 10603 10604 10604 10603 10602 10602 10601 10600 10600 10600 10598 10597 10597 10595 10594 10593 10591 10589
10379 10382 10385 10388 10392 10397 10401 10404 10408 10412 10418 10423 10428 10434 10441 10448 10454 10461 10469 10474 10479 10484 10489 10491 10491 10493 10497 10508 10525 10535 10534 10534 10543 10551 10555 10558 10562 10566 10570 10572 10574 10574 10574 10574 10576 10579 10581 10584 10586 10588 10590 10590 10590 10591 10591 10592 10593 10594 10594 10595 10595 10596 10596 10596 10596 10597 10597 10597 10597 10598 10598 10598 10597 10597 10596 10595 10594 10594 10593 10593 10593 10592 10590 10589 10587 10585 10583
10380 10382 10385 10388 10393 10397 10400 10404 10409 10414 10419 10423 10427 10434 10441 10447 10454 10462 10468 10472 10476 10480 10483 10486 10488 10492 10500 10513 10525 10529 10527 10532 10542 10547 10550 10553 10558 10561 10563 10565 10568 10569 10569 10570 10571 10574 10577 10579 10581 10583 10583 10584 10585 10585 10586 10586 10587 10588 10588 10589 10590 10590 10590 10590 10590 10591 10591 10591 10591 10592 10592 10592 10591 10591 10590 10589 10589 10588 10588 10587 10587 10586 10585 10584 10581 10578 10576
10381 10383 10386 10390 10394 10398 10401 10406 10412 10416 10419 10424 10430 10437 10444 10450 10456 10462 10467 10470 10473 10476 10481 10485 10487 10492 10502 10515 10521 10521 10523 10531 10538 10540 10543 10549 10553 10555 10556 10557 10560 10561 10562 10564 10566 10569 10572 10574 10575 10576 10577 10578 10579 10580 10580 10581 10581 10582 10583 10583 10584 10584 10584 10584 10584 10585 10585 10585 10585 10586 10586 10586 10585 10585 10585 10584 10583 10583 10582 10582 10581 10581 10580 10578 10575 10572 10569
10381 10384 10387 10391 10395 10399 10403 10409 10415 10418 10422 10427 10433 10439 10445 10450 10454 10459 10462 10465 10469 10475 10480 10483 10485 10492 10504 10513 10515 10516 10521 10528 10532 10534 10539 10545 10548 10549 10549 10550 10552 10554 10556 10559 10562 10564 10566 10567 10568 10569 10571 10571 10572 10574 10575 10575 10575 10576 10577 10577 10577 10578 10578 10578 10578 10578 10578 10579 10579 10580 10580 10580 10579 10579 10579 10578 10577 10577 10577 10577 10576 10576 10575 10572 10569 10567 10565
10383 10386 10389 10392 10396 10400 10405 10411 10416 10420 10424 10429 10434 10438 10443 10447 10452 10455 10459 10464 10469 10474 10478 10480 10484 10495 10504 10506 10508 10513 10519 10523 10527 10531 10535 10539 10542 10543 10544 10545 10547 10549 10551 10554 10556 10558 10560 10561 10562 10563 10564 10565 10566 10568 10568 10569 10570 10571 10571 10570 10571 10572 10572 10572 10572 10572 10573 10573 10573 10574 10574 10573 10573 10573 10572 10572 10572 10572 10572 10572 10571 10571 10569 10565 10563 10561 10560
10385 10388 10391 10393 10397 10401 10407 10413 10417 10420 10426 10432 10434 10436 10441 10446 10450 10454 10458 10463 10468 10472 10475 10478 10486 10494 10497 10499 10504 10511 10514 10518 10524 10530 10532 10535 10538 10538 10539 10541 10544 10545 10546 10548 10551 10552 10554 10555 10556 10557 10558 10559 10560 10561 10562 10563 10564 10564 10564 10564 10565 10565 10566 10566 10566 10567 10567 10567 10567 10568 10567 10567 10567 10567 10566 10566 10566 10567 10567 10566 10566 10565 10563 10561 10558 10555 10553
10385 10388 10391 10395 10398 10402 10407 10413 10417 10422 10429 10434 10437 10439 10443 10446 10450 10453 10457 10461 10465 10468 10472 10478 10485 10489 10491 10496 10503 10507 10510 10516 10523 10527 10529 10532 10534 10535 10536 10538 10539 10540 10541 10542 10544 10546 10547 10548 10549 10551 10552 10553 10554 10555 10556 10557 10558 10558 10558 10558 10558 10559 10559 10560 10561 10561 10561 10561 10562 10561 10561 10561 10561 10560 10560 10560 10560 10561 10562 10561 10560 10560 10559 10557 10555 10552 10549
10386 10389 10392 10396 10400 10404 10408 10413 10418 10423 10428 10433 10437 10441 10444 10447 10451 10455 10457 10460 10464 10467 10471 10476 10481 10484 10487 10492 10499 10503 10509 10516 10521 10524 10529 10533 10533 10532 10532 10532 10532 10533 10535 10536 10538 10540 10540 10541 10543 10544 10546 10547 10548 10549 10550 10551 10551 10551 10552 10552 10552 10552 10553 10554 10555 10555 10555 10555 10556 10555 10555 10554 10554 10554 10554 10554 10554 10555 10555 10555 10554 10555 10554 10552 10551 10548 10546
10387 10391 10394 10398 10402 10406 10410 10414 10418 10423 10427 10431 10434 10438 10443 10448 10452 10455 10457 10459 10462 10465 10468 10472 10476 10480 10483 10489 10495 10501 10509 10516 10520 10525 10532 10535 10531 10525 10523 10524 10525 10526 10528 10530 10532 10533 10533 10534 10536 10538 10539 10540 10541 10542 10544 10544 10545 10545 10546 10545 10546 10546 10546 10547 10548 10549 10549 10549 10549 10549 10548 10548 10548 10548 10548 10548 10548 10549 10549 10549 10549 10548 10548 10547 10545 10543 10541
10388 10391 10395 10399 10404 10408 10412 10416 10420 10424 10427 10429 10431 10435 10440 10444 10448 10451 10454 10457 10460 10463 10465 10468 10473 10477 10481 10485 10491 10498 10507 10514 10519 10524 10530 10534 10530 10521 10515 10514 10517 10519 10522 10524 10526 10527 10527 10527 10529 10531 10532 10533 10535 10536 10537 10537 10539 10540 10539 10539 10540 10540 10540 10541 10541 10542 10542 10542 10542 10541 10541 10541 10541 10542 10542 10542 10543 10542 10542 10542 10542 10542 10541 10541 10539 10537 10535
10390 10393 10397 10402 10406 10410 10413 10417 10421 10425 10428 10430 10432 10434 10435 10437 10441 10447 10451 10455 10459 10461 10463 10465 10470 10475 10478 10481 10486 10493 10500 10509 10515 10520 10526 10531 10530 10519 10510 10508 10511 10515 10517 10518 10519 10519 10519 10520 10522 10524 10525 10526 10528 10529 10530 10531 10533 10533 10532 10533 10535 10534 10534 10535 10535 10535 10536 10535 10534 10534 10534 10534 10534 10535 10536 10536 10536 10536 10536 10535 10535 10535 10534 10534 10532 10531 10529
10390 10394 10398 10402 10405 10408 10412 10417 10421 10424 10427 10429 10431 10433 10433 10433 10436 10440 10445 10449 10455 10458 10459 10462 10467 10471 10474 10477 10481 10487 10494 10503 10512 10520 10528 10532 10528 10516 10506 10503 10507 10511 10512 10510 10510 10511 10512 10514 10515 10516 10517 10519 10521 10522 10523 10525 10527 10527 10526 10527 10529 10528 10528 10529 10528 10528 10528 10528 10527 10527 10527 10527 10528 10528 10529 10530 10530 10529 10528 10528 10528 10528 10527 10526 10525 10524 10523
10390 10396 10399 10401 10402 10404 10409 10413 10417 10420 10423 10425 10426 10428 10429 10431 10433 10436 10439 10443 10447 10451 10454 10458 10461 10465 10469 10473 10476 10481 10489 10499 10508 10517 10523 10525 10519 10508 10500 10498 10502 10505 10505 10503 10503 10505 10506 10507 10508 10509 10511 10512 10514 10515 10516 10519 10520 10520 10520 10521 10523 10523 10522 10522 10522 10522 10522 10520 10519 10519 10520 10521 10522 10521 10522 10523 10523 10522 10521 10521 10521 10521 10520 10518 10518 10518 10516
10388 10393 10396 10397 10398 10401 10404 10407 10411 10415 10418 10420 10421 10422 10424 10427 10430 10433 10436 10438 10440 10444 10448 10452 10455 10459 10463 10466 10470 10475 10482 10491 10499 10505 10508 10507 10502 10496 10492 10491 10495 10499 10499 10497 10497 10498 10498 10499 10501 10503 10504 10505 10506 10507 10509 10512 10513 10514 10515 10516 10516 10516 10516 10515 10515 10516 10515 10513 10512 10512 10513 10514 10515 10514 10515 10516 10516 10515 10514 10514 10513 10513 10513 10511 10511 10511 10509
10385 10388 10389 10391 10395 10398 10401 10404 10407 10410 10414 10416 10418 10419 10421 10424 10426 10429 10431 10433 10435 10438 10442 10446 10450 10453 10456 10459 10463 10467 10473 10480 10486 10490 10491 10491 10489 10487 10485 10485 10488 10492 10492 10490 10491 10492 10493 10494 10495 10496 10496 10497 10498 10499 10502 10506 10507 10508 10509 10510 10510 10510 10509 10507 10508 10509 10507 10505 10505 10505 10506 10507 10507 10507 10508 10509 10509 10508 10507 10506 10506 10506 10506 10504 10504 10504 10503
10384 10384 10386 10389 10392 10395 10398 10400 10403 10406 10408 10411 10413 10415 10417 10420 10421 10423 10425 10427 10430 10432 10435 10439 10442 10445 10448 10452 10456 10459 10463 10468 10474 10478 10479 10480 10481 10480 10479 10480 10482 10485 10485 10484 10485 10487 10487 10489 10491 10490 10489 10489 10491 10493 10496 10500 10501 10502 10503 10503 10504 10504 10502 10500 10501 10501 10500 10498 10498 10498 10499 10500 10500 10500 10501 10502 10502 10501 10500 10499 10499 10499 10499 10497 10497 10496 10495
10381 10382 10384 10387 10390 10393 10395 10396 10399 10401 10404 10406 10408 10410 10413 10414 10416 10418 10420 10423 10425 10427 10430 10432 10435 10438 10441 10445 10448 10451 10454 10458 10463 10466 10468 10470 10472 10473 10474 10474 10476 10478 10479 10479 10479 10480 10481 10483 10485 10485 10484 10484 10485 10487 10490 10494 10495 10496 10497 10497 10497 10497 10496 10495 10494 10493 10491 10491 10491 10492 10493 10493 10493 10493 10494 10495 10494 10494 10493 10493 10493 10492 10491 10490 10489 10488 10488
10378 10378 10381 10384 10387 10389 10391 10393 10395 10397 10400 10402 10404 10406 10408 10410 10412 10414 10417 10419 10421 10423 10425 10427 10429 10432 10435 10438 10441 10443 10446 10449 10453 10456 10458 10461 10463 10465 10466 10468 10469 10470 10472 10473 10473 10473 10474 10476 10477 10479 10480 10480 10480 10481 10484 10488 10489 10490 10491 10491 10490 10489 10489 10489 10486 10484 10483 10484 10485 10485 10486 10486 10486 10487 10487 10487 10487 10487 10487 10486 10486 10485 10484 10483 10481 10480 10479
10374 10374 10376 10379 10382 10384 10387 10389 10391 10393 10395 10397 10399 10402 10404 10405 10407 10409 10411 10413 10416 10418 10420 10421 10423 10425 10428 10431 10434 10436 10439 10441 10444 10447 10449 10451 10453 10455 10457 10459 10460 10462 10464 10465 10465 10466 10467 10468 10470 10472 10474 10474 10474 10474 10478 10483 10484 10484 10485 10484 10482 10482 10482 10482 10480 10477 10476 10477 10479 10479 10479 10479 10479 10480 10480 10480 10480 10480 10479 10479 10479 10478 10477 10475 10473 10472 10471
10369 10371 10373 10375 10377 10380 10382 10384 10386 10388 10390 10393 10395 10397 10398 10400 10403 10405 10406 10409 10411 10413 10414 10415 10417 10419 10422 10424 10427 10429 10431 10434 10436 10438 10440 10442 10444 10446 10448 10450 10452 10454 10455 10457 10458 10458 10459 10461 10463 10465 10466 10467 10467 10468 10472 10476 10479 10479 10478 10476 10476 10476 10475 10474 10471 10469 10469 10470 10472 10473 10473 10472 10472 10473 10474 10474 10474 10473 10472 10472 10471 10470 10469 10468 10465 10463 10462
10365 10366 10368 10369 10371 10374 10377 10380 10382 10384 10386 10388 10390 10391 10393 10396 10398 10400 10402 10404 10406 10408 10409 10410 10411 10413 10416 10418 10420 10422 10424 10426 10428 10429 10431 10432 10435 10437 10440 10442 10444 10445 10447 10449 10450 10451 10452 10454 10455 10457 10458 10459 10461 10463 10465 10469 10471 10471 10471 10471 10471 10470 10468 10465 10462 10461 10462 10463 10465 10465 10466 10466 10465 10466 10467 10467 10467 10467 10466 10465 10463 10462 10462 10461 10458 10455 10452
10359 10360 10362 10363 10365 10368 10371 10373 10376 10379 10381 10383 10385 10387 10389 10391 10393 10395 10397 10399 10401 10402 10404 10404 10406 10409 10411 10413 10414 10416 10417 10419 10421 10422 10423 10424 10426 10428 10431 10434 10435 10437 10439 10441 10442 10443 10445 10447 10448 10448 10449 10452 10454 10456 10457 10459 10461 10461 10462 10462 10463 10462 10459 10457 10455 10455 10456 10456 10457 10458 10459 10459 10459 10459 10460 10460 10460 10460 10459 10458 10456 10454 10453 10453 10452 10448 10443
10355 10356 10357 10357 10359 10361 10364 10367 10370 10372 10374 10376 10379 10381 10382 10385 10388 10391 10392 10394 10396 10397 10398 10399 10401 10404 10406 10407 10409 10411 10412 10413 10414 10416 10417 10417 10418 10419 10422 10425 10427 10430 10432 10434 10434 10435 10438 10440 10441 10441 10442 10444 10447 10448 10449 10450 10451 10452 10453 10453 10454 10453 10452 10450 10451 10451 10451 10450 10450 10451 10452 10452 10453 10453 10452 10452 10452 10452 10451 10450 10449 10447 10445 10444 10444 10442 10435
10352 10352 10351 10351 10353 10355 10358 10361 10363 10365 10367 10370 10372 10373 10376 10380 10383 10384 10386 10388 10390 10392 10393 10394 10397 10399 10400 10402 10404 10405 10406 10406 10407 10409 10410 10411 10411 10412 10414 10416 10419 10422 10425 10426 10427 10428 10431 10433 10434 10434 10434 10436 10439 10440 10441 10441 10441 10443 10445 10445 10445 10446 10445 10445 10446 10446 10445 10444 10445 10445 10445 10445 10446 10446 10445 10445 10444 10444 10443 10442 10441 10439 10438 10437 10437 10434 10429
10347 10348 10347 10348 10349 10350 10352 10355 10356 10358 10360 10363 10365 10367 10370 10373 10375 10377 10379 10381 10383 10384 10386 10388 10390 10392 10394 10396 10397 10398 10400 10401 10401 10402 10404 10406 10406 10406 10407 10409 10412 10415 10417 10418 10419 10421 10423 10425 10425 10425 10427 10430 10432 10433 10434 10433 10434 10436 10437 10437 10438 10439 10440 10439 10438 10438 10438 10439 10439 10439 10439 10438 10439 10439 10438 10437 10436 10436 10435 10434 10433 10432 10430 10429 10428 10427 10422
10341 10342 10343 10344 10345 10346 10347 10349 10350 10352 10354 10357 10359 10361 10364 10366 10368 10370 10372 10374 10376 10378 10380 10382 10384 10385 10388 10389 10391 10392 10394 10395 10396 10397 10398 10400 10400 10400 10401 10403 10406 10408 10410 10411 10412 10414 10415 10416 10416 10418 10421 10423 10425 10426 10427 10427 10429 10431 10431 10429 10430 10433 10433 10431 10431 10432 10432 10432 10433 10432 10431 10431 10431 10431 10430 10429 10429 10428 10427 10426 10425 10423 10421 10420 10419 10418 10414
10333 10335 10337 10339 10340 10341 10342 10344 10345 10347 10349 10351 10353 10355 10357 10359 10362 10364 10366 10368 10370 10372 10373 10375 10377 10379 10381 10383 10385 10386 10388 10389 10390 10390 10392 10393 10393 10394 10396 10398 10400 10402 10403 10404 10406 10407 10408 10408 10410 10412 10415 10416 10417 10418 10420 10422 10424 10425 10424 10422 10423 10425 10426 10425 10424 10425 10425 10425 10425 10425 10424 10423 10423 10423 10422 10422 10421 10421 10419 10417 10416 10414 10413 10412 10411 10409 10405
10326 10328 10329 10331 10333 10335 10336 10338 10339 10340 10343 10345 10347 10349 10351 10354 10356 10358 10360 10362 10364 10366 10367 10369 10372 10373 10376 10378 10379 10380 10382 10383 10383 10384 10385 10385 10386 10388 10391 10393 10394 10396 10397 10398 10400 10400 10401 10402 10404 10406 10408 10409 10410 10411 10412 10414 10417 10419 10417 10414 10415 10417 10418 10418 10418 10418 10418 10418 10418 10417 10416 10416 10415 10414 10414 10413 10413 10412 10410 10409 10407 10407 10405 10403 10402 10400 10397
10319 10320 10321 10323 10326 10328 10330 10331 10333 10334 10336 10338 10341 10343 10346 10348 10350 10353 10355 10356 10358 10360 10362 10364 10366 10368 10369 10371 10373 10374 10375 10375 10376 10377 10378 10378 10380 10382 10385 10386 10388 10389 10391 10392 10392 10393 10394 10396 10398 10400 10402 10403 10403 10403 10404 10407 10410 10411 10410 10407 10407 10409 10411 10412 10411 10411 10411 10411 10410 10409 10408 10407 10407 10406 10405 10405 10404 10403 10402 10400 10399 10399 10397 10395 10394 10392 10390
10311 10313 10314 10316 10318 10320 10323 10325 10327 10329 10331 10333 10335 10338 10340 10342 10344 10347 10349 10350 10352 10354 10356 10357 10359 10361 10362 10364 10366 10367 10367 10367 10369 10371 10371 10372 10374 10376 10378 10380 10382 10383 10384 10384 10384 10385 10388 10391 10391 10393 10395 10395 10395 10394 10396 10399 10401 10402 10402 10400 10399 10401 10403 10404 10404 10403 10403 10402 10401 10400 10399 10398 10398 10399 10398 10396 10394 10394 10394 10392 10391 10390 10388 10387 10386 10384 10382
10303 10305 10307 10309 10311 10313 10315 10318 10320 10323 10325 10327 10329 10332 10334 10335 10337 10340 10341 10343 10345 10348 10349 10350 10352 10354 10355 10356 10358 10359 10359 10361 10363 10364 10365 10365 10366 10369 10373 10375 10375 10374 10376 10378 10378 10379 10382 10384 10384 10386 10388 10387 10386 10386 10388 10390 10391 10393 10393 10392 10392 10393 10394 10395 10395 10394 10394 10393 10392 10390 10390 10390 10391 10391 10389 10386 10385 10385 10386 10385 10382 10381 10380 10380 10378 10376 10374
10296 10299 10301 10302 10304 10306 10308 10311 10313 10316 10318 10320 10322 10324 10326 10328 10330 10332 10334 10336 10339 10340 10342 10343 10345 10347 10348 10349 10351 10352 10353 10355 10356 10356 10357 10359 10360 10363 10368 10369 10366 10365 10369 10372 10372 10372 10374 10376 10377 10378 10379 10378 10377 10379 10381 10382 10383 10384 10384 10384 10384 10385 10386 10386 10385 10385 10384 10384 10382 10381 10382 10383 10383 10381 10379 10378 10377 10377 10377 10375 10373 10372 10372 10371 10370 10369 10367
10291 10294 10295 10296 10297 10300 10302 10304 10306 10308 10310 10312 10314 10316 10318 10321 10323 10326 10328 10329 10331 10333 10335 10336 10338 10340 10341 10342 10343 10344 10346 10347 10348 10349 10351 10353 10354 10357 10361 10360 10357 10357 10363 10366 10365 10365 10367 10367 10368 10369 10370 10369 10370 10373 10374 10374 10374 10374 10374 10374 10375 10377 10378 10378 10377 10376 10375 10375 10373 10372 10373 10375 10374 10372 10370 10370 10370 10369 10368 10366 10365 10364 10363 10361 10361 10360 10358
10284 10286 10287 10288 10290 10292 10294 10296 10298 10299 10301 10303 10306 10308 10310 10313 10316 10318 10320 10322 10323 10325 10327 10329 10330 10332 10333 10334 10336 10337 10338 10340 10341 10343 10344 10345 10347 10349 10352 10351 10349 10350 10355 10358 10358 10358 10358 10358 10358 10361 10362 10362 10363 10364 10364 10364 10365 10365 10365 10365 10366 10368 10369 10369 10368 10367 10367 10366 10365 10365 10365 10366 10365 10363 10362 10362 10361 10361 10359 10358 10357 10356 10355 10353 10353 10352 10350
10276 10278 10279 10280 10282 10284 10286 10287 10289 10290 10293 10296 10298 10300 10302 10304 10306 10309 10311 10313 10314 10316 10318 10320 10321 10323 10325 10327 10328 10329 10330 10332 10333 10335 10337 10338 10339 10340 10342 10343 10343 10343 10346 10348 10350 10350 10349 10349 10351 10353 10354 10354 10354 10355 10355 10356 10356 10356 10356 10357 10358 10358 10359 10359 10360 10359 10358 10357 10357 10357 10357 10357 10356 10354 10353 10353 10352 10351 10350 10349 10348 10347 10346 10345 10344 10343 10341
10269 10270 10272 10273 10274 10276 10276 10277 10279 10282 10285 10288 10290 10291 10293 10295 10297 10300 10303 10305 10306 10307 10310 10312 10313 10315 10317 10319 10320 10321 10322 10324 10325 10327 10329 10330 10331 10332 10334 10335 10336 10336 10337 10339 10340 10341 10341 10342 10343 10345 10346 10345 10346 10347 10347 10348 10348 10347 10347 10348 10349 10349 10349 10350 10351 10350 10349 10349 10349 10348 10348 10348 10348 10347 10346 10345 10344 10342 10341 10340 10339 10339 10337 10336 10335 10334 10332
10262 10263 10264 10264 10264 10266 10268 10270 10273 10276 10278 10280 10281 10283 10284 10286 10289 10292 10296 10297 10298 10299 10302 10304 10306 10307 10309 10311 10312 10314 10315 10316 10318 10320 10321 10323 10323 10324 10325 10326 10327 10329 10329 10330 10331 10332 10333 10334 10335 10336 10337 10337 10338 10338 10339 10339 10339 10339 10339 10340 10340 10340 10340 10342 10342 10341 10340 10340 10340 10339 10338 10338 10339 10339 10338 10337 10336 10334 10333 10332 10331 10330 10329 10328 10327 10325 10323
10254 10256 10256 10255 10255 10258 10263 10266 10267 10269 10270 10272 10274 10275 10277 10279 10282 10286 10288 10289 10290 10291 10294 10296 10298 10299 10301 10303 10305 10306 10308 10309 10310 10312 10313 10314 10315 10315 10316 10318 10319 10320 10321 10321 10322 10323 10324 10325 10326 10327 10328 10328 10329 10329 10330 10331 10331 10331 10331 10331 10331 10331 10331 10332 10333 10332 10331 10331 10331 10331 10329 10329 10329 10329 10329 10329 10327 10326 10325 10324 10323 10322 10321 10320 10318 10316 10315
10246 10248 10248 10248 10248 10251 10255 10257 10258 10260 10262 10265 10267 10269 10271 10273 10276 10278 10280 10280 10281 10283 10286 10287 10289 10291 10293 10295 10297 10298 10299 10301 10302 10303 10305 10306 10306 10307 10308 10309 10310 10311 10311 10313 10314 10315 10315 10316 10317 10317 10318 10319 10319 10320 10321 10322 10322 10321 10321 10322 10322 10322 10322 10322 10323 10323 10322 10322 10323 10322 10321 10320 10320 10320 10320 10319 10318 10317 10315 10315 10314 10313 10312 10311 10310 10308 10306
10239 10240 10239 10239 10240 10243 10245 10248 10250 10252 10255 10257 10259 10261 10264 10266 10267 10269 10270 10271 10273 10275 10277 10279 10282 10284 10286 10288 10289 10289 10290 10291 10293 10295 10296 10298 10298 10298 10299 10301 10302 10302 10303 10304 10305 10306 10306 10307 10308 10308 10309 10310 10310 10311 10312 10312 10311 10311 10312 10312 10313 10312 10312 10312 10312 10312 10313 10313 10313 10312 10311 10311 10312 10311 10310 10310 10310 10308 10306 10305 10305 10304 10302 10302 10301 10300 10299
10231 10231 10231 10232 10233 10235 10238 10240 10243 10245 10247 10249 10251 10253 10255 10256 10257 10259 10260 10262 10264 10267 10269 10272 10275 10277 10277 10278 10279 10280 10281 10282 10284 10287 10289 10290 10290 10290 10291 10293 10294 10294 10295 10296 10296 10297 10297 10298 10298 10299 10300 10300 10301 10301 10302 10302 10302 10302 10302 10303 10303 10303 10303 10302 10302 10302 10303 10303 10303 10303 10302 10302 10302 10302 10301 10300 10301 10300 10298 10296 10295 10294 10293 10292 10290 10290 10290
10222 10223 10223 10225 10227 10229 10230 10233 10235 10237 10239 10240 10242 10244 10246 10247 10248 10251 10253 10254 10256 10258 10261 10264 10266 10266 10267 10268 10270 10271 10272 10274 10276 10278 10280 10281 10281 10282 10283 10284 10285 10285 10286 10286 10287 10287 10288 10289 10289 10290 10290 10291 10292 10292 10292 10293 10293 10293 10293 10293 10293 10294 10293 10293 10292 10293 10293 10293 10293 10293 10293 10292 10292 10291 10291 10290 10290 10289 10288 10287 10286 10284 10283 10282 10281 10280 10279